BKPRLQSA

Guest
Details From BKPR - Pristina Intl
To LQSA - Sarajevo
Flight Number -
Tags generated
Created
Modified
Stats Distance 140 nm / 260 km
Max Altitude 14,300 ft / 4,359 m
Waypoints 3
Social Downloads 0
Likes 0
Share VATSIM

Download

Looking for another format? Having issues loading an existing format? Contact us
Advertisement - Login to hide

Notes

Basic altitude profile: - Ascent Rate: 2500ft/min - Ascent Speed: 250kts - Cruise Altitude: 2500ft - Cruise Speed: 420kts - Descent Rate: 1500ft/min - Descent Speed: 250kts Options: - Use NATs: yes - Use PACOTS: yes - Use low airways: yes - Use high airways: yes

Route

BKPR BEDAK LQSA

ID Type Via Altitude Latitude Longitude Leg Dist Tot Dist Heading (true) Name
O BKPR APT - 0 ft / 0 m 42.57453˚ 21.03568˚ - 0 nm - Pristina Intl
BEDAK FIX - 14,300 ft / 4,359 m 43.23972˚ 19.63836˚ 73 nm 73 nm 303° / 303° -
O LQSA APT - 0 ft / 0 m 43.82460˚ 18.33150˚ 66 nm 140 nm 302° / 301° Sarajevo

Altitude Profile

Advertisement - Login to hide

BKPR

Details ICAO BKPR
Name Pristina Intl
Region Kosovo
Timezone Europe/Belgrade (UTC+2.0)
Stats Elevation 1,789 ft / 545 m (AMSL)
Location 42.574531° 21.035685°
Runways 1
Magnetic Variation 4.598° E

METAR

BKPR 240630Z 01004KT 9999 FEW030 BKN080 16/12 Q1018 NOSIG

Decode

TAF

TAF BKPR 232330Z 2400/2424 VRB03KT 9999 FEW040 SCT080 TEMPO 2402/2406 3000 BR TEMPO 2408/2419 5000 TSRA SCT030CB

Decode

Departure Runways

ID Width Length Bearing (true) Bearing (mag) Surface Threshold Offset Overrun Length
17 148 ft / 45 m 8,175 ft / 2,492 m 175.71° 171.11° Asphalt 0 ft / 0 m 98 ft / 30 m
35 148 ft / 45 m 8,175 ft / 2,492 m 355.71° 351.11° Asphalt 0 ft / 0 m 98 ft / 30 m

LQSA

Details ICAO LQSA (SJJ)
Name Sarajevo
Region Bosnia and Herzegovinia
Timezone Europe/Sarajevo (UTC+2.0)
Stats Elevation 1,708 ft / 521 m (AMSL)
Location 43.824597° 18.331500°
Runways 1
Magnetic Variation 4.269° E

METAR

LQSA 240630Z VRB01KT 7000 SCT010 15/13 Q1018 NOSIG

Decode

TAF

Not found

Destination Runways

ID Width Length Bearing (true) Bearing (mag) Surface Threshold Offset Overrun Length
12 150 ft / 46 m 8,519 ft / 2,597 m 117.41° 113.14° Asphalt 333 ft / 102 m 0 ft / 0 m
30 150 ft / 46 m 8,519 ft / 2,597 m 297.43° 293.16° Asphalt 666 ft / 203 m 0 ft / 0 m

Approach Navaids

Runway Type Ident Frequency Range Bearing (true) Bearing (mag) Slope Elevation
12 Localiser BHS 110.70 MHz 25 nm / 46 km 117.00° 112.73° - 1,709 ft / 521 m (AMSL)
12 Glidescope BHS 110.70 MHz 25 nm / 46 km 117.00° 112.73° 3.20° 1,705 ft / 520 m (AMSL)
12 DME BHS 110.70 MHz 25 nm / 46 km - - - 1,705 ft / 520 m (AMSL)